Location: Casco Millpond
(44.5581°N, 87.6111°W)
Time: 21:34:46
(UTC+00:00)

Cosmos 676 Rocket - Pass Details

Date: 16 January 2026
Orbit: 750 x 779 km, 74.0° (Epoch: 10 February)

Event Time Altitude Azimuth Distance (km) Brightness Sun altitude
Rises 23:05:01 0° 338° (NNW) 3,217 7.2 -5.1°
Reaches altitude 10° 23:07:23 10° 337° (NNW) 2,291 6.5 -5.5°
Maximum altitude 23:12:34 80° 251° (WSW) 777 4.2 -6.4°
Drops below altitude 10° 23:17:46 10° 165° (SSE) 2,293 6.6 -7.2°
Sets 23:20:08 0° 165° (SSE) 3,219 7.3 -7.6°
